Stations météo

Publicité
Arkona, Allemagne (10091): Température de l'air & dewpoint: 04.12.2018 16:00:00 - 10.12.2018 16:00:00 (CET)Arkona, Allemagne (10091): Température de l'air 5cm & Température de l'air -5cm: 04.12.2018 16:00:00 - 10.12.2018 16:00:00 (CET)Arkona, Allemagne (10091): Température de l'air -20cm & Température de l'air -100cm: 04.12.2018 16:00:00 - 10.12.2018 16:00:00 (CET)Arkona, Allemagne (10091): water temperature: 04.12.2018 16:00:00 - 10.12.2018 16:00:00 (CET)Arkona, Allemagne (10091): Vitesse du vent & gusts: 04.12.2018 16:00:00 - 10.12.2018 16:00:00 (CET)Arkona, Allemagne (10091): Direction du vent: 04.12.2018 16:00:00 - 10.12.2018 16:00:00 (CET)Arkona, Allemagne (10091): reduced air pressure: 04.12.2018 16:00:00 - 10.12.2018 16:00:00 (CET)Arkona, Allemagne (10091): visibility: 04.12.2018 16:00:00 - 10.12.2018 16:00:00 (CET)Arkona, Allemagne (10091): Ensoleillement: 04.12.2018 16:00:00 - 10.12.2018 16:00:00 (CET)Arkona, Allemagne (10091): Quantités de précipitations: 04.12.2018 16:00:00 - 10.12.2018 16:00:00 (CET)
Date & Time tt [°C] td [°C] tt 5cm [°C] tt -5cm [°C] tt -20cm [°C] tt -100cm [°C] tw [°C] ff [km/h] ff [knt] fx [km/h] fx [knt] dd ppp [hPa] vv [km] sd [min] rr [mm]
10.12.2018 16:00:00 - - - - - - - - - - - - - - - -
10.12.2018 15:00:00 5,6 1,3 5,3 4,3 5,0 7,9 7,7 45 24 64 34 W 1003,4 29 2 0,0
10.12.2018 14:00:00 5,8 1,4 5,9 4,4 5,0 7,9 7,7 45 24 64 35 W 1003,3 28 23 0,0
10.12.2018 13:00:00 5,7 1,4 5,6 4,3 5,0 7,9 7,7 49 26 63 34 W 1003,3 35 5 0,0
10.12.2018 12:00:00 5,7 1,2 5,6 4,4 4,9 7,9 7,6 39 21 67 36 WNW 1003,3 31 11 0,0
10.12.2018 11:00:00 5,9 1,4 5,9 4,0 4,9 7,9 7,6 41 22 63 34 W 1003,0 40 31 0,0
10.12.2018 10:00:00 5,6 1,1 4,8 3,9 4,9 7,9 7,6 38 20 67 36 WNW 1002,7 33 0 0,0
10.12.2018 09:00:00 5,4 2,0 4,4 3,8 4,9 7,9 7,6 35 19 70 38 WNW 1002,3 27 0 0,0
10.12.2018 08:00:00 5,7 0,9 5,1 3,7 4,9 7,9 7,7 41 22 65 35 W 1001,7 38 0 0,0
10.12.2018 07:00:00 5,6 0,9 5,1 3,5 5,0 7,8 7,7 38 21 60 32 WNW 1001,2 31 0 0,0
10.12.2018 06:00:00 5,4 0,3 4,8 3,3 5,1 7,8 7,7 40 21 63 34 WNW 1000,7 36 0 0,0
10.12.2018 05:00:00 5,1 1,3 4,3 3,2 5,2 7,8 7,7 38 20 59 32 WNW 1000,2 31 0 0,0
10.12.2018 04:00:00 5,0 1,2 3,8 3,2 5,3 7,8 7,7 40 22 61 33 WNW 999,5 30 0 0,0
10.12.2018 03:00:00 5,1 1,9 4,0 3,6 5,4 7,8 7,7 34 19 66 36 WNW 999,0 25 0 0,0
10.12.2018 02:00:00 5,8 2,6 4,7 3,8 5,5 7,8 7,6 46 25 61 33 W 998,3 34 0 0,0
10.12.2018 01:00:00 5,7 3,3 4,6 3,6 5,7 7,8 7,7 39 21 56 30 W 997,6 39 0 0,0
10.12.2018 00:00:00 5,3 1,8 4,1 3,8 5,8 7,8 7,7 35 19 57 31 WNW 997,2 44 0 0,0
09.12.2018 23:00:00 5,6 0,9 4,8 4,2 6,0 7,8 7,7 46 25 72 39 NW 995,9 47 0 0,0
09.12.2018 22:00:00 5,5 0,6 4,7 4,9 6,1 7,8 7,8 46 25 68 37 NW 994,4 49 0 0,0
09.12.2018 21:00:00 6,0 3,1 5,2 5,5 6,1 7,8 7,8 44 24 61 33 NW 992,4 48 0 0,0
09.12.2018 20:00:00 6,1 4,1 5,7 5,5 6,2 7,8 7,8 34 19 51 27 W 990,9 45 0 0,0
09.12.2018 19:00:00 6,5 4,8 5,9 5,7 6,2 7,8 7,8 35 19 51 28 W 989,9 30 0 0,0
09.12.2018 18:00:00 6,5 5,1 5,9 5,8 6,2 7,8 7,7 36 19 49 27 W 989,1 30 0 0,0
09.12.2018 17:00:00 6,5 4,9 6,1 5,8 6,3 7,8 7,8 38 21 48 26 W 988,5 38 0 0,0
09.12.2018 16:00:00 6,6 5,4 6,2 6,0 6,3 7,8 7,8 33 18 47 26 WSW 988,2 36 0 0,0
09.12.2018 15:00:00 6,7 5,2 6,2 6,3 6,2 7,8 7,8 36 20 51 27 WSW 987,7 34 0 0,0
09.12.2018 14:00:00 7,0 5,5 6,8 6,5 6,2 7,8 7,8 40 21 55 30 W 987,1 25 3 0,0
09.12.2018 13:00:00 6,9 5,8 6,5 6,6 6,1 7,8 7,8 43 23 55 30 WSW 986,5 30 0 0,1
09.12.2018 12:00:00 6,9 5,8 7,0 6,5 6,0 7,8 7,7 38 21 51 27 WSW 986,1 29 0 0,0
09.12.2018 11:00:00 6,8 5,7 6,8 6,2 5,9 7,8 7,7 40 22 50 27 WSW 985,8 29 0 0,0
09.12.2018 10:00:00 6,8 5,7 6,7 5,8 5,9 7,8 7,7 40 21 51 27 WSW 985,2 31 0 0,0
09.12.2018 09:00:00 6,4 5,5 6,0 5,3 5,9 7,8 7,8 33 18 42 23 WSW 984,5 23 0 0,0
09.12.2018 08:00:00 5,7 5,3 5,4 4,9 5,9 7,8 7,8 25 13 31 17 WSW 984,0 24 0 0,0
09.12.2018 07:00:00 5,2 5,0 4,9 5,2 6,0 7,8 7,8 19 10 22 12 SW 983,4 9 0 0,0
09.12.2018 06:00:00 5,5 5,2 5,0 5,3 6,0 7,8 7,7 17 9 26 14 SSW 983,1 23 0 0,0
09.12.2018 05:00:00 5,7 5,0 5,3 5,4 6,0 7,8 7,8 23 12 33 18 S 983,4 29 0 0,2
09.12.2018 04:00:00 5,7 4,7 5,2 5,3 6,1 7,8 7,8 27 15 46 25 SSW 984,2 23 0 0,1
09.12.2018 03:00:00 6,3 4,3 5,5 5,4 6,1 7,7 - 41 22 50 27 SSW 984,9 20 0 0,0
09.12.2018 02:00:00 6,3 4,2 5,7 5,4 6,2 7,7 7,8 38 21 58 31 SSW 985,7 31 0 0,0
09.12.2018 01:00:00 6,4 4,3 5,9 5,7 6,2 7,7 7,8 45 24 57 31 SW 986,3 32 0 0,0
09.12.2018 00:00:00 6,7 4,7 6,0 5,8 6,2 7,7 7,8 41 22 58 31 SW 987,3 34 0 0,1
08.12.2018 23:00:00 6,8 5,5 6,2 6,0 6,2 7,7 7,8 45 25 64 35 SW 987,9 27 0 0,0
08.12.2018 22:00:00 6,9 5,5 6,1 6,1 6,2 7,7 7,8 53 29 74 40 SW 988,3 20 0 0,0
08.12.2018 21:00:00 6,9 5,8 6,3 6,1 6,2 7,7 7,8 51 28 72 39 SW 988,5 25 0 0,9
08.12.2018 20:00:00 7,0 5,6 6,3 6,1 6,2 7,7 7,8 51 28 69 37 WSW 988,9 35 0 0,5
08.12.2018 19:00:00 7,0 5,8 6,3 6,0 6,2 7,7 7,8 48 26 62 34 SW 989,0 16 0 0,1
08.12.2018 18:00:00 6,6 5,5 6,1 5,9 6,2 7,7 7,8 51 28 66 36 SW 989,5 18 0 0,1
08.12.2018 17:00:00 6,8 5,1 6,0 5,8 6,2 7,7 7,8 50 27 70 38 SW 989,9 13 0 0,0
08.12.2018 16:00:00 6,5 5,0 5,8 5,8 6,2 7,7 7,8 49 27 65 35 SW 990,3 44 0 0,0
08.12.2018 15:00:00 6,2 5,0 5,8 5,9 6,2 7,7 7,8 43 23 66 36 SSW 991,0 29 0 0,0
08.12.2018 14:00:00 6,5 4,5 6,1 6,0 6,1 7,7 7,8 51 27 66 36 SW 991,4 11 0 0,0
08.12.2018 13:00:00 6,5 4,4 6,4 5,9 6,1 7,6 7,8 48 26 64 34 SW 992,0 31 0 0,0
08.12.2018 12:00:00 6,0 4,0 5,7 5,6 6,1 7,6 7,8 51 28 74 40 SW 992,4 21 0 0,0
08.12.2018 11:00:00 5,2 4,1 4,7 5,2 6,2 7,6 7,8 46 25 59 32 SSW 993,4 20 0 1,6
08.12.2018 10:00:00 5,1 3,8 4,5 5,0 6,3 7,6 7,8 41 22 55 30 SW 994,6 7 0 0,2
08.12.2018 09:00:00 5,6 2,8 5,3 4,8 6,4 7,6 7,8 39 21 53 29 SW 995,0 28 0 0,0
08.12.2018 08:00:00 5,2 2,7 4,4 4,7 6,6 7,6 7,7 40 21 61 33 SW 995,4 31 0 0,0
08.12.2018 07:00:00 5,7 3,3 4,7 5,1 6,8 7,6 7,7 44 24 61 33 WSW 994,9 26 0 0,0
08.12.2018 06:00:00 6,0 3,9 5,0 5,7 7,0 7,6 7,7 50 27 72 39 WSW 994,6 22 0 0,0
08.12.2018 05:00:00 6,6 4,7 6,1 6,2 7,1 7,6 7,7 50 27 67 36 WSW 994,0 22 0 0,0
08.12.2018 04:00:00 6,8 4,8 6,3 6,6 7,3 7,6 7,7 49 26 63 34 WSW 993,8 23 0 0,1
08.12.2018 03:00:00 6,9 5,4 6,3 6,9 7,4 7,6 7,8 51 27 71 38 W 993,0 15 0 0,4
08.12.2018 02:00:00 7,2 5,9 6,9 7,6 7,4 7,6 7,8 54 29 80 43 W 991,7 26 0 0,4
08.12.2018 01:00:00 9,0 8,6 8,7 8,2 7,4 7,6 7,8 33 18 41 22 SSW 990,3 15 0 0,3
08.12.2018 00:00:00 9,1 8,8 8,8 8,4 7,4 7,6 7,8 32 18 44 24 SSW 990,8 9 0 0,1
07.12.2018 23:00:00 9,5 9,2 9,2 8,5 7,4 7,6 7,8 35 19 44 24 SSW 991,4 19 0 1,0
07.12.2018 22:00:00 9,5 9,2 9,2 8,4 7,3 7,6 7,8 32 18 40 21 SSW 992,1 9 0 0,0
07.12.2018 21:00:00 9,4 9,3 9,2 8,5 7,3 7,6 7,8 32 17 39 21 SW 993,0 6 0 0,0
07.12.2018 20:00:00 9,6 9,5 9,5 8,6 7,2 7,6 7,7 32 17 40 21 SSW 994,1 14 0 0,2
07.12.2018 19:00:00 9,6 9,5 9,5 8,6 7,2 7,6 7,7 34 18 42 23 SSW 995,2 6 0 0,7
07.12.2018 18:00:00 9,6 9,6 9,5 8,6 7,1 7,6 7,7 29 16 36 19 SSW 996,0 4,4 0 0,2
07.12.2018 17:00:00 9,7 9,6 9,6 8,6 7,0 7,6 7,7 27 15 35 19 SSW 997,0 3,7 0 0,5
07.12.2018 16:00:00 9,7 9,7 9,6 8,6 6,9 7,6 7,7 27 14 32 17 SSW 998,1 18 0 0,6
07.12.2018 15:00:00 9,7 9,7 9,7 8,7 6,7 7,6 7,7 24 13 31 17 SSW 999,1 3,5 0 1,1
07.12.2018 14:00:00 9,8 9,8 9,8 8,7 6,5 7,6 7,7 24 13 29 15 SSW 1000,3 0,3 0 0,2
07.12.2018 13:00:00 9,5 9,5 9,7 8,6 6,4 7,6 7,7 20 11 32 17 SSW 1001,3 0,3 0 0,4
07.12.2018 12:00:00 9,6 9,6 9,7 8,0 6,2 7,6 7,7 23 13 32 17 WSW 1002,5 1,9 0 0,1
07.12.2018 11:00:00 8,8 8,8 8,9 7,6 6,1 7,6 7,7 22 12 29 16 WSW 1003,5 0,8 0 0,0
07.12.2018 10:00:00 8,3 8,3 8,3 7,4 6,0 7,6 7,7 22 12 41 22 WSW 1004,0 0,3 0 0,0
07.12.2018 09:00:00 8,6 8,3 8,5 7,4 5,9 7,6 7,7 32 18 42 23 W 1004,5 4,1 0 0,0
07.12.2018 08:00:00 8,5 8,2 8,2 7,3 5,8 7,6 7,7 30 16 46 25 WSW 1004,2 7 0 0,0
07.12.2018 07:00:00 8,8 8,3 8,7 7,5 5,6 7,7 7,9 39 21 56 30 W 1004,6 24 0 0,0
07.12.2018 06:00:00 9,0 8,7 8,8 7,4 5,5 7,7 8,0 45 24 62 33 WSW 1004,4 11 0 0,0
07.12.2018 05:00:00 9,2 8,8 9,0 7,1 5,3 7,7 8,0 50 27 64 34 WSW 1004,3 6 0 0,0
07.12.2018 04:00:00 9,2 9,1 8,9 6,8 5,1 7,7 8,0 37 20 50 27 WSW 1004,6 9 0 0,1
07.12.2018 03:00:00 8,8 8,8 8,6 6,5 4,9 7,7 8,0 34 18 49 26 SW 1005,3 1,8 0 1,8
07.12.2018 02:00:00 8,2 8,2 8,0 6,1 4,7 7,7 8,0 32 17 41 22 SW 1006,3 1,7 0 0,8
07.12.2018 01:00:00 7,8 7,8 7,6 5,7 4,5 7,7 8,0 30 16 37 20 SW 1007,1 1,3 0 1,3
07.12.2018 00:00:00 7,4 7,4 7,2 5,4 4,3 7,7 8,0 28 15 39 21 SW 1008,0 1,1 0 0,0
06.12.2018 23:00:00 7,1 7,1 6,9 5,0 4,2 7,7 8,0 33 18 41 22 SW 1008,4 1,2 0 0,0
06.12.2018 22:00:00 6,3 6,2 6,2 4,6 4,1 7,7 8,0 31 17 37 20 SW 1009,1 1,2 0 0,1
06.12.2018 21:00:00 5,6 5,6 5,4 4,2 4,0 7,7 7,9 29 15 40 22 SW 1009,8 1,8 0 0,0
06.12.2018 20:00:00 4,8 4,7 4,7 3,8 3,9 7,7 7,9 31 17 38 20 SW 1010,0 1,7 0 0,0
06.12.2018 19:00:00 4,2 4,1 4,1 3,6 3,8 7,7 8,0 28 15 36 19 SW 1010,9 1,4 0 0,0
06.12.2018 18:00:00 3,6 3,4 3,5 3,4 3,8 7,7 7,9 26 14 34 18 SSW 1011,5 1,7 0 0,1
06.12.2018 17:00:00 3,3 3,0 3,2 3,2 3,8 7,7 7,9 26 14 37 20 SSW 1012,1 2,3 0 0,0
06.12.2018 16:00:00 3,1 2,6 3,0 3,2 3,7 7,7 7,9 29 16 40 22 SSW 1012,3 7 0 0,0
06.12.2018 15:00:00 3,1 2,1 3,0 3,1 3,7 7,7 7,8 32 18 43 23 SSW 1012,2 12 0 0,0
06.12.2018 14:00:00 3,2 1,6 3,1 3,1 3,6 7,7 7,8 33 18 39 21 S 1012,7 27 0 0,0
06.12.2018 13:00:00 2,9 1,6 2,9 3,0 3,6 7,8 7,8 30 16 41 22 S 1013,5 25 0 0,0
06.12.2018 12:00:00 2,5 1,6 2,5 2,9 3,6 7,8 7,7 35 19 47 26 S 1014,1 14 0 0,0
06.12.2018 11:00:00 2,5 1,2 2,1 2,8 3,5 7,8 7,7 40 22 51 27 S 1015,1 14 0 0,3
06.12.2018 10:00:00 3,2 0,6 2,3 2,6 3,5 7,8 7,7 36 19 45 24 S 1015,6 14 0 0,0
06.12.2018 09:00:00 3,1 0,4 2,4 2,4 3,5 7,8 7,7 31 17 44 24 S 1015,9 19 0 0,4
06.12.2018 08:00:00 2,8 0,5 1,9 2,3 3,5 7,8 7,7 29 16 41 22 S 1016,1 12 0 0,6
06.12.2018 07:00:00 3,0 -0,3 1,8 2,2 3,5 7,8 7,8 29 16 41 22 S 1016,4 14 0 0,0
06.12.2018 06:00:00 3,3 -0,8 2,9 2,1 3,5 7,8 7,8 30 16 49 27 S 1016,8 38 0 0,0
06.12.2018 05:00:00 3,3 -0,8 3,0 2,1 3,5 7,8 7,8 36 20 49 26 S 1017,0 38 0 0,0
06.12.2018 04:00:00 3,4 -0,9 3,0 2,0 3,5 7,8 7,8 35 19 47 26 S 1018,0 38 0 0,0
06.12.2018 03:00:00 3,5 -0,8 3,0 2,0 3,5 7,8 7,8 36 19 47 25 S 1018,4 41 0 0,0
06.12.2018 02:00:00 3,5 -0,1 2,9 2,0 3,6 7,8 7,8 33 18 46 25 S 1019,2 42 0 0,0
06.12.2018 01:00:00 3,2 0,2 2,7 1,9 3,6 7,8 7,8 32 17 42 23 S 1020,3 33 0 0,0
06.12.2018 00:00:00 3,1 -0,4 2,5 1,7 3,6 7,8 7,8 33 18 41 22 S 1021,4 36 0 0,0
05.12.2018 23:00:00 3,2 0,1 2,5 1,7 3,7 7,8 7,7 30 16 39 21 S 1022,2 38 0 0,0
05.12.2018 22:00:00 3,1 0,2 2,3 1,5 3,8 7,8 7,8 29 16 36 20 S 1022,8 34 0 0,0
05.12.2018 21:00:00 3,2 0,2 2,0 1,3 4,0 7,8 7,7 28 15 35 19 S 1023,1 32 0 0,0
05.12.2018 20:00:00 2,3 0,7 0,7 1,2 4,2 7,8 7,8 26 14 32 17 SSW 1023,7 24 0 0,0
05.12.2018 19:00:00 2,0 0,7 0,1 1,4 4,5 7,8 7,8 21 11 27 15 SSW 1023,8 24 0 0,0
05.12.2018 18:00:00 2,0 0,8 0,3 2,0 4,8 7,8 7,8 23 12 29 16 SW 1024,4 27 0 0,0
05.12.2018 17:00:00 2,2 1,2 0,2 2,7 5,0 7,8 7,8 21 12 26 14 SW 1024,6 26 0 0,0
05.12.2018 16:00:00 3,3 1,6 1,7 3,9 5,0 7,8 7,8 22 12 28 15 SW 1024,8 29 15 0,0
05.12.2018 15:00:00 4,9 2,2 4,4 5,3 4,9 7,8 7,8 22 12 32 17 WSW 1024,9 33 51 0,0
05.12.2018 14:00:00 5,0 2,8 5,0 5,7 4,7 7,8 7,8 22 12 32 18 WSW 1025,1 36 23 0,0
05.12.2018 13:00:00 5,5 4,2 6,0 6,0 4,5 7,8 7,8 23 12 29 16 WSW 1025,4 22 24 0,1
05.12.2018 12:00:00 4,2 3,7 3,9 4,6 4,3 7,8 7,8 24 13 48 26 WSW 1025,5 10 28 1,5
05.12.2018 11:00:00 5,4 3,7 5,7 4,1 4,2 7,8 7,8 24 13 34 19 WSW 1025,4 26 48 0,0
05.12.2018 10:00:00 5,6 4,2 6,0 3,6 4,1 7,8 7,8 28 15 37 20 WSW 1025,0 25 17 0,0
05.12.2018 09:00:00 4,6 3,5 3,8 2,9 4,1 7,8 7,8 24 13 40 21 WSW 1024,7 28 4 0,0
05.12.2018 08:00:00 4,8 3,2 3,9 3,0 4,1 7,8 7,8 32 17 43 23 W 1024,3 35 0 0,0
05.12.2018 07:00:00 4,5 2,3 3,5 2,7 4,1 7,8 7,8 31 17 45 24 W 1023,7 37 0 0,0
05.12.2018 06:00:00 5,2 1,7 4,1 2,6 4,1 7,8 7,8 35 19 47 26 W 1023,3 33 0 0,0
05.12.2018 05:00:00 5,1 1,8 4,0 2,5 4,2 7,8 7,8 37 20 49 26 W 1022,8 28 0 0,0
05.12.2018 04:00:00 4,9 1,5 3,7 2,3 4,2 7,7 7,8 31 17 48 26 W 1022,5 27 0 0,0
05.12.2018 03:00:00 5,1 0,8 3,7 2,3 4,3 7,7 7,8 34 18 52 28 WNW 1021,9 31 0 0,0
05.12.2018 02:00:00 5,0 0,9 3,6 2,3 4,4 7,7 7,8 34 18 58 32 W 1021,5 31 0 0,0
05.12.2018 01:00:00 5,2 0,4 3,9 2,3 4,5 7,7 7,9 39 21 69 38 WNW 1020,8 35 0 0,0
05.12.2018 00:00:00 5,0 0,1 3,6 2,3 4,6 7,7 7,9 37 20 61 33 WNW 1020,1 31 0 0,0
04.12.2018 23:00:00 4,9 -0,2 3,6 2,5 4,8 7,7 7,9 40 22 59 32 WNW 1019,3 36 0 0,0
04.12.2018 22:00:00 5,1 0,3 4,0 2,7 4,9 7,7 7,9 37 20 64 34 WNW 1018,6 37 0 0,0
04.12.2018 21:00:00 5,1 0,1 3,9 2,8 5,0 7,7 7,9 44 24 68 37 WNW 1017,3 32 0 0,0
04.12.2018 20:00:00 5,3 0,2 4,2 2,9 5,1 7,7 7,9 44 24 74 40 W 1016,5 38 0 0,0
04.12.2018 19:00:00 5,5 0,4 4,4 3,1 5,3 7,7 8,1 50 27 69 38 W 1015,7 32 0 0,0
04.12.2018 18:00:00 5,6 -0,7 4,2 3,1 5,5 7,7 8,1 43 23 74 40 WNW 1014,8 33 0 0,0
04.12.2018 17:00:00 5,8 0,0 4,6 3,5 5,7 7,7 8,1 51 28 74 40 W 1013,6 31 0 0,0
04.12.2018 16:00:00 5,8 -0,5 4,8 4,1 5,8 7,6 8,1 53 29 74 40 W 1012,5 34 11 0,0

tt = Température de l'air
td = dewpoint
tt 5cm = Température de l'air 5cm
tt -5cm = Température de l'air -5cm
tt -20cm = Température de l'air -20cm
tt -100cm = Température de l'air -100cm
tw = water temperature
ff = Vitesse du vent
fx = gusts
dd = Direction du vent
ppp = reduced air pressure
vv = visibility
sd = Ensoleillement
rr = Quantités de précipitations

stations d'obs. à proximité